Tracking 18856 objects as of 11-Dec-2017
HD Live streaming from Space Station
objects crossing your sky now

TIANLIAN 1-02

Track TIANLIAN 1-02 now!
TIANLIAN 1-02 is classified as:


NORAD ID: 37737
Int'l Code: 2011-032A
Perigee: 35,750.7 km
Apogee: 35,838.1 km
Inclination: 2.7 °
Period: 1,436.1 minutes
Semi major axis: 42165 km
RCS: 12.5893 m2 (large)
Launch date: July 11, 2011
Source: People's Republic of China (PRC)
Launch site: Xichang Space Center, China (XSC)

TIANLIAN 1-02 is the second Tianlian 1 data relay satellite, joining a similar craft launched in April 2008. The satellites are part of a network to increase the coverage of tracking stations for Chinese space missions across the globe.
aabbcc
Your satellite tracking list
Your tracking list is empty




NASA's NSSDC Master Catalog

Two Line Element Set (TLE):
1 37737U 11032A   17344.55740332 +.00000019 +00000-0 +00000-0 0  9992
2 37737 002.7421 076.6518 0010364 188.6711 191.5396 01.00269409023532
Source of the keplerian elements: AFSPC